Weather in Qui Nhơn

Vietnam     13°46′27″N   109°14′33″E
temp.,
°C
wind,
m/s
gust,
m/s
humid.,
%
clouds,
%
prec.,
mm/h
press.,
hPa
HPBL,
m
8 august, mon
mon801:00+25w4990100 11.3 1004414
04:00+25w4988100 1.7 1003498
07:00+25wsw4988100 3.4 1004478
10:00+26w4983100 1.1 1004771
13:00+26w51181100 1.9 1002765
16:00+26w4982100 0.4 1001736
19:00+25wsw41088100 4.1 1003683
22:00+24wsw51190100 6.9 1004578
9 august, tue
tue901:00+24w41090100 14.7 1002461
04:00+24w71586100 9.9 1002934
07:00+24w51387100 17.6 1004764
10:00+25wsw61284100 4.5 1004829
13:00+25w61181100 5.3 1003752
16:00+26w61078100 0.0 1002698
19:00+26wsw51078100 0.0 1003755
22:00+25w4978100 0.0 1005677
10 august, wed
wed1001:00+25wsw3580100 0.0 1003294
04:00+24w4882100 0.0 1002440
07:00+26w3777100 0.0 1004700
10:00+28w6969100 0.0 10051004
13:00+30w6863100 0.0 1003798
16:00+30sw5765100 0.0 1002546
19:00+28sw3772100 0.0 1004289
22:00+26ssw367693 0.0 1006311
11 august, thu
thu1101:00+26wsw368099 0.0 1004302
04:00+26w41079100 0.0 1004572
07:00+27wsw4874100 0.0 1005618
10:00+30w5763100 0.0 1006775
13:00+32ese1357100 0.0 1004859
16:00+29sse7777100 0.7 1004429
19:00+27sse6883100 4.3 1006381
22:00+27ssw3485100 2.1 1007198
12 august, fri
fri1201:00+26wnw3386100 3.4 1006113
04:00+26wsw348395 0.1 1005125
07:00+26w2381100 0.1 1006162
10:00+29wnw1366100 0.0 1007622
13:00+31e2361100 0.0 1005890
16:00+29se447496 0.4 1004309
19:00+27sse5683100 6.5 1006283
22:00+26ssw2286100 3.9 1008123